sat.trackr.live / text

‹ back to catalog

2025-292D

NORAD 66996 · 2025-292D

PAYLOAD ACTIVE UNKNOWN

§ Identity

Operator
Country
PRC
Launch date
2025-12-10
Launch site
JSC
Launch vehicle
Mass (kg)
RCS (m²)

External: N2YO · Heavens-Above · Gunter

§ Orbital elements

Epoch: 2026-05-25T04:50:12.387264Z

Period
95.63 min
Inclination
97.6321°
Eccentricity
0.0016145
Mean motion
15.05874153 rev/d
Perigee alt
537.6 km
Apogee alt
560.0 km
Semi-major
6,927.0 km
B*
2.2247e-4
RAAN
221.1052°
Arg perigee
82.2412°
Mean anomaly
278.0648°
Rev number
2,498

§ Raw data

2025-292D1 66996U 25292D   26145.20153226  .00003178  00000+0  22247-3 0  99932 66996  97.6321 221.1052 0016145  82.2412 278.0648 15.05874153 24982

JSON: /api/v1/satellites/66996 · /tle

For live sub-satellite position, see the globe view (requires WebGL).

§ Visibility from observer

Set your observer location to see the next 7 days of passes ≥ 10°. The values pass through the URL so the page stays shareable.

No JS? Fill the form by hand. The geolocation button needs JavaScript.